[[{"header":{"parameterUnit":"m.s-1","parameterCategory":1,"la1":30.2991,"la2":30.254,"lo1":-89.0895,"lo2":-89.0444,"dy":0.0017,"dx":0.0017,"nx":28,"ny":28,"refTime":"2024-03-01T09:00:00:Z","depth":0,"parameterNumber":2,"parameterNumberName":"U-component_of_WINDS"},"data":[0,0,0,0,0,0,0,0,0,0,0,0,0,0,0,0,0,0,0,0,0,0,0,0,0,0,0,0,0,0,0,0,0,0,0,0,0,0,0,0,0,0,0,0,0,0,0,0,0,0,0,0,0,0,0,0,0,0,1.1343,1.1344,0,1.144,1.1441,1.1442,1.1461,1.146,1.1459,1.1459,1.1558,1.1562,1.1565,0,0,0,0,0,0,0,0,0,0,0,0,0,1.1176,1.1179,1.1343,1.1344,1.1346,1.144,1.1441,1.1443,1.1461,1.146,1.1459,1.1458,1.1557,1.1561,1.1565,0,0,0,0,0,0,0,0,0,0,0,0,0,1.1258,1.118,1.1343,1.1366,1.1369,1.144,1.1441,1.1443,1.1461,1.146,1.1459,1.1458,1.1556,1.1561,1.1566,1.162,0,0,1.1581,1.1584,0,0,0,0,0,0,0,0,1.1254,1.1265,1.1362,1.1365,1.1368,1.1437,1.1419,1.1503,1.1462,1.1426,1.1459,1.1457,1.1519,1.1527,1.1548,1.1625,1.1629,1.1582,1.1585,1.1587,1.1589,0,0,0,0,0,0,0,1.1248,1.1261,1.1382,1.1363,1.1367,1.1373,1.1383,1.1435,1.1478,1.1429,1.1431,1.1442,1.1521,1.1543,1.155,1.1631,1.1582,1.1586,1.1589,1.1591,1.1761,1.1762,0,0,0,0,0,0,1.1238,1.1256,1.1379,1.1385,1.1307,1.1376,1.1388,1.1416,1.1478,1.1486,1.1443,1.1443,1.1535,1.1544,1.1554,1.1623,1.1587,1.1592,1.1595,1.1759,1.1761,1.1762,0,0,0,0,0,0,1.1234,1.1249,1.1375,1.1321,1.1337,1.1381,1.1412,1.1419,1.1441,1.1488,1.1496,1.1458,1.1534,1.1547,1.1604,1.1627,1.1594,1.1599,1.1757,1.176,1.1762,1.1762,0,0,0,0,0,0,1.1229,1.1247,1.1268,1.1321,1.134,1.1423,1.1413,1.1422,1.145,1.145,1.1504,1.1511,1.1534,1.1597,1.1609,1.1633,1.1603,1.1756,1.1758,1.1761,1.176,1.1763,1.1767,0,0,0,0,0,1.1223,1.1263,1.1269,1.1283,1.1366,1.1424,1.1435,1.146,1.1451,1.1473,1.1504,1.151,1.1623,1.1602,1.1617,1.1643,1.1754,1.1758,1.1761,1.1758,1.1763,1.1767,0,0,0,0,0,0,1.1211,1.1271,1.1277,1.1335,1.1374,1.1427,1.1454,1.1464,1.1506,1.1505,1.1535,1.1547,1.1603,1.1629,1.1605,1.17,1.1688,1.1694,1.1681,1.1686,1.1689,1.1682,1.1607,0,0,0,0,0,1.1215,1.1257,1.1307,1.1353,1.1373,1.141,1.1436,1.1453,1.1494,1.1511,1.1546,1.1586,1.1631,1.166,1.1704,1.1764,1.1777,1.1789,1.1792,1.1795,1.18,1.1836,1.1843,1.1773,1.1773,1.1773,0,0,1.1224,1.1262,1.1286,1.1352,1.1384,1.1427,1.1424,1.1469,1.1502,1.1518,1.1575,1.1602,1.1649,1.1709,1.1737,1.1732,1.1823,1.1799,1.1801,1.1805,1.184,1.1847,1.1852,1.1775,1.1775,1.1775,0,0,1.1262,1.1294,1.1337,1.137,1.142,1.1445,1.1455,1.1507,1.1526,1.1583,1.1597,1.1637,1.1713,1.1747,1.1774,1.1828,1.1836,1.1842,1.186,1.1894,1.19,1.1905,1.1926,1.1932,1.1847,1.1847,1.1847,0,1.1267,1.1332,1.1358,1.1404,1.1433,1.1451,1.1496,1.1526,1.1587,1.1608,1.1602,1.1699,1.1732,1.1801,1.1815,1.1836,1.185,1.1835,1.1897,1.1902,1.1907,1.1927,1.1935,1.1847,1.1847,1.1847,1.1847,0,1.1336,1.1381,1.141,1.1469,1.1502,1.1547,1.1582,1.1612,1.1626,1.1652,1.1712,1.1753,1.1806,1.1824,1.1838,1.1896,1.1891,1.1891,1.1879,1.1914,1.1933,1.1941,1.1848,1.1848,1.1848,1.1847,0,0,1.1367,1.1442,1.1452,1.148,1.1537,1.1573,1.162,1.1672,1.1698,1.1741,1.1781,1.1847,1.1847,1.1878,1.1897,1.1927,1.197,1.1923,1.1925,1.1931,1.2038,1.2038,1.2046,1.1976,1.1977,1.1978,1.2034,0,1.1412,1.1495,1.1522,1.1592,1.1635,1.1654,1.1695,1.1735,1.1762,1.1803,1.1832,1.1879,1.1875,1.1894,1.1925,1.1958,1.1991,1.1954,1.2015,1.2016,1.2002,1.2056,1.2056,1.2106,1.2042,1.2043,1.2044,0,1.1476,1.152,1.1594,1.1648,1.1667,1.1703,1.1755,1.1793,1.184,1.1858,1.1893,1.191,1.1961,1.1947,1.2019,1.1993,1.202,1.204,1.2042,1.2049,1.2032,1.2065,1.2123,1.2131,1.2056,1.2055,1.2054,0,1.1492,1.157,1.1625,1.1648,1.1712,1.1738,1.1765,1.1811,1.1842,1.1887,1.1908,1.1958,1.1986,1.2026,1.2057,1.2043,1.2126,1.2114,1.2143,1.2142,1.2159,1.2157,1.2223,1.2176,1.2176,1.2175,1.2175,0,1.154,1.1585,1.1634,1.1667,1.1719,1.1751,1.1801,1.183,1.1871,1.1912,1.1931,1.1969,1.2007,1.2051,1.2075,1.2132,1.2144,1.2161,1.2167,1.2159,1.2157,1.2177,1.2174,1.2177,1.2177,1.2177,1.2176,0,1.1566,1.1601,1.1662,1.1718,1.1734,1.1769,1.1818,1.1852,1.1881,1.1932,1.1946,1.1991,1.2043,1.2078,1.2145,1.2161,1.2223,1.2228,1.2207,1.221,1.2238,1.2235,1.2318,1.2331,1.2275,1.2275,1.2275,0,1.1595,1.163,1.169,1.1719,1.1747,1.1793,1.1825,1.1858,1.1891,1.1949,1.1976,1.203,1.2075,1.2159,1.2197,1.2249,1.2256,1.2282,1.2264,1.2256,1.2258,1.2255,1.226,1.2284,1.2285,1.2285,1.2285,0,1.1641,1.1657,1.1702,1.1754,1.1792,1.1834,1.1877,1.1899,1.194,1.1976,1.2031,1.2066,1.2135,1.2189,1.2245,1.2275,1.2288,1.2291,1.2301,1.2293,1.228,1.2288,1.2216,1.2289,1.2288,1.2288,1.2288,1.2288,1.167,1.1703,1.1752,1.1802,1.1838,1.1878,1.1913,1.1947,1.1992,1.2051,1.2069,1.2126,1.2174,1.2251,1.2282,1.2328,1.2325,1.2339,1.2342,1.2345,1.2346,1.2273,1.2338,1.2338,1.2338,1.2338,1.2338,0,1.1719,1.1751,1.1797,1.1857,1.1897,1.1906,1.1954,1.1987,1.2037,1.2081,1.2126,1.2189,1.2243,1.2286,1.2342,1.237,1.2378,1.2384,1.2382,1.2389,1.2344,1.2331,1.2377,1.2377,1.2377,1.2377,1.2377,1.2377,1.1749,1.1806,1.1828,1.1903,1.1936,1.1992,1.2019,1.2057,1.2092,1.2162,1.2207,1.2235,1.228,1.2339,1.2389,1.2401,1.242,1.2425,1.2438,1.2396,1.2392,1.2387,1.2375,1.2429,1.2429,1.2479,1.248,1.248]},{"header":{"parameterUnit":"m.s-1","parameterCategory":1,"la1":30.2991,"la2":30.254,"lo1":-89.0895,"lo2":-89.0444,"dy":0.0017,"dx":0.0017,"nx":28,"ny":28,"refTime":"2024-03-01T09:00:00:Z","depth":0,"parameterNumber":3,"parameterNumberName":"V-component_of_WINDS"},"data":[0,0,0,0,0,0,0,0,0,0,0,0,0,0,0,0,0,0,0,0,0,0,0,0,0,0,0,0,0,0,0,0,0,0,0,0,0,0,0,0,0,0,0,0,0,0,0,0,0,0,0,0,0,0,0,0,0,0,-2.5496,-2.5495,0,-2.5361,-2.536,-2.5358,-2.5273,-2.5273,-2.5273,-2.5272,-2.512,-2.5116,-2.5113,0,0,0,0,0,0,0,0,0,0,0,0,0,-2.5668,-2.5665,-2.5496,-2.5495,-2.5493,-2.5362,-2.536,-2.5358,-2.5274,-2.5273,-2.5273,-2.5272,-2.5121,-2.5117,-2.5112,0,0,0,0,0,0,0,0,0,0,0,0,0,-2.5569,-2.5664,-2.5497,-2.5436,-2.5429,-2.5362,-2.536,-2.5357,-2.5274,-2.5273,-2.5272,-2.5272,-2.5122,-2.5117,-2.5112,-2.5091,0,0,-2.5095,-2.5093,0,0,0,0,0,0,0,0,-2.5575,-2.5563,-2.5446,-2.544,-2.5432,-2.5334,-2.5364,-2.5267,-2.5274,-2.5332,-2.5272,-2.5271,-2.5191,-2.5179,-2.5155,-2.5084,-2.5077,-2.5094,-2.5091,-2.5089,-2.5087,0,0,0,0,0,0,0,-2.5582,-2.5568,-2.5442,-2.5445,-2.5436,-2.541,-2.5396,-2.5345,-2.5266,-2.5327,-2.5321,-2.5307,-2.5186,-2.5161,-2.5151,-2.5075,-2.5095,-2.509,-2.5086,-2.5084,-2.4977,-2.4977,0,0,0,0,0,0,-2.56,-2.5574,-2.5447,-2.5438,-2.5504,-2.5408,-2.5391,-2.5366,-2.5267,-2.5251,-2.5307,-2.5303,-2.517,-2.5157,-2.5145,-2.5113,-2.5089,-2.5084,-2.5081,-2.4976,-2.4977,-2.4977,0,0,0,0,0,0,-2.5604,-2.559,-2.5452,-2.5505,-2.5485,-2.5406,-2.5378,-2.5363,-2.5338,-2.5252,-2.5236,-2.5296,-2.5169,-2.5153,-2.5105,-2.5107,-2.5081,-2.5076,-2.4976,-2.4976,-2.4977,-2.505,0,0,0,0,0,0,-2.561,-2.5592,-2.5586,-2.5505,-2.5483,-2.542,-2.5378,-2.5361,-2.533,-2.5323,-2.5237,-2.5222,-2.5168,-2.5114,-2.51,-2.5099,-2.5072,-2.4975,-2.4976,-2.4977,-2.5047,-2.5053,-2.5058,0,0,0,0,0,-2.5616,-2.5609,-2.5587,-2.5572,-2.5475,-2.542,-2.5406,-2.5348,-2.5331,-2.5322,-2.5267,-2.5225,-2.5109,-2.511,-2.5093,-2.5091,-2.4975,-2.4976,-2.4977,-2.5045,-2.5052,-2.5058,0,0,0,0,0,0,-2.5688,-2.5598,-2.5571,-2.5539,-2.5489,-2.5406,-2.5394,-2.5357,-2.5307,-2.5302,-2.5226,-2.5207,-2.5167,-2.5123,-2.5126,-2.5064,-2.5037,-2.5035,-2.5094,-2.51,-2.5106,-2.5117,-2.5067,0,0,0,0,0,-2.5701,-2.5668,-2.5589,-2.5568,-2.5545,-2.5474,-2.5447,-2.5407,-2.5349,-2.5326,-2.5267,-2.5208,-2.5158,-2.5127,-2.5076,-2.504,-2.5019,-2.503,-2.5035,-2.504,-2.5039,-2.5015,-2.5018,-2.498,-2.498,-2.498,0,0,-2.5726,-2.5673,-2.5655,-2.5581,-2.5537,-2.5501,-2.5456,-2.5419,-2.539,-2.5318,-2.5272,-2.5226,-2.5155,-2.5114,-2.5092,-2.5076,-2.5045,-2.5042,-2.5046,-2.5042,-2.5016,-2.502,-2.5023,-2.4981,-2.4981,-2.4981,0,0,-2.5753,-2.571,-2.5688,-2.5646,-2.5581,-2.5534,-2.5529,-2.5451,-2.542,-2.5373,-2.5318,-2.5279,-2.5196,-2.5147,-2.5112,-2.512,-2.5078,-2.5105,-2.5134,-2.5111,-2.5114,-2.5116,-2.5117,-2.5119,-2.5104,-2.5104,-2.5104,0,-2.5791,-2.5738,-2.568,-2.5647,-2.5615,-2.5553,-2.5528,-2.5487,-2.5407,-2.5384,-2.5369,-2.5263,-2.521,-2.5156,-2.5158,-2.5132,-2.512,-2.5114,-2.5119,-2.5121,-2.5122,-2.5122,-2.5123,-2.5108,-2.5107,-2.5107,-2.5107,0,-2.5787,-2.5751,-2.574,-2.567,-2.5636,-2.5607,-2.554,-2.5512,-2.5474,-2.5427,-2.5378,-2.5313,-2.5248,-2.5232,-2.5193,-2.5171,-2.5163,-2.5134,-2.5105,-2.513,-2.5129,-2.5129,-2.5113,-2.5112,-2.5111,-2.511,0,0,-2.5855,-2.5755,-2.5752,-2.5718,-2.5642,-2.5611,-2.5577,-2.5518,-2.5494,-2.544,-2.5408,-2.5339,-2.5312,-2.5271,-2.5225,-2.5206,-2.5214,-2.5178,-2.5175,-2.5186,-2.5184,-2.5206,-2.5207,-2.5187,-2.5187,-2.5186,-2.5189,0,-2.587,-2.5813,-2.5759,-2.5718,-2.5682,-2.5623,-2.5592,-2.554,-2.5495,-2.5454,-2.5402,-2.5354,-2.5323,-2.5298,-2.5276,-2.5219,-2.5213,-2.5217,-2.5151,-2.515,-2.5171,-2.5207,-2.523,-2.5236,-2.5189,-2.5189,-2.5188,0,-2.588,-2.5834,-2.5792,-2.5719,-2.5701,-2.5676,-2.5617,-2.558,-2.5518,-2.5486,-2.5442,-2.5395,-2.5351,-2.5328,-2.5264,-2.5269,-2.5238,-2.5205,-2.5204,-2.5195,-2.5171,-2.5197,-2.5237,-2.5238,-2.5187,-2.5188,-2.5188,0,-2.5933,-2.586,-2.5825,-2.5798,-2.5712,-2.5696,-2.5658,-2.5596,-2.5563,-2.551,-2.5487,-2.5428,-2.5394,-2.5347,-2.5283,-2.5272,-2.5226,-2.5197,-2.5195,-2.5196,-2.5187,-2.5188,-2.5221,-2.5169,-2.5169,-2.5169,-2.5169,0,-2.5955,-2.5931,-2.5848,-2.5826,-2.5796,-2.5732,-2.5703,-2.5659,-2.5604,-2.5569,-2.5511,-2.5479,-2.5397,-2.5353,-2.5302,-2.5256,-2.5241,-2.5211,-2.5198,-2.5216,-2.522,-2.5195,-2.5192,-2.5169,-2.5169,-2.5169,-2.5169,0,-2.6009,-2.5953,-2.5911,-2.5834,-2.5814,-2.5795,-2.5726,-2.57,-2.5653,-2.5609,-2.5595,-2.5518,-2.5464,-2.5396,-2.5317,-2.5283,-2.5242,-2.5222,-2.5265,-2.5257,-2.5258,-2.5259,-2.5275,-2.5273,-2.5224,-2.5225,-2.5225,0,-2.6027,-2.6007,-2.593,-2.5905,-2.5871,-2.5831,-2.5799,-2.5734,-2.5702,-2.5629,-2.5611,-2.5553,-2.5504,-2.5418,-2.5352,-2.5291,-2.5268,-2.5278,-2.5258,-2.5277,-2.5267,-2.5269,-2.5265,-2.5283,-2.5284,-2.5285,-2.5285,0,-2.6063,-2.6037,-2.5995,-2.5944,-2.5909,-2.5863,-2.5815,-2.5797,-2.5721,-2.5687,-2.5634,-2.5596,-2.5518,-2.546,-2.5391,-2.5346,-2.5302,-2.5293,-2.5288,-2.5307,-2.5332,-2.5317,-2.5278,-2.5292,-2.5291,-2.5291,-2.5291,-2.529,-2.6098,-2.6078,-2.6021,-2.5976,-2.5934,-2.5891,-2.5863,-2.5814,-2.5769,-2.5705,-2.5668,-2.5615,-2.5549,-2.5453,-2.541,-2.5364,-2.5347,-2.5342,-2.534,-2.534,-2.5345,-2.5341,-2.5351,-2.535,-2.535,-2.535,-2.535,0,-2.6131,-2.6092,-2.6052,-2.5989,-2.5953,-2.592,-2.5864,-2.5835,-2.5791,-2.5736,-2.569,-2.5626,-2.5569,-2.55,-2.5437,-2.5413,-2.5391,-2.5398,-2.5399,-2.5389,-2.5364,-2.5373,-2.5417,-2.5417,-2.5417,-2.5417,-2.5417,-2.5417,-2.6144,-2.6109,-2.6075,-2.6016,-2.5975,-2.5927,-2.5898,-2.5856,-2.5812,-2.5746,-2.5701,-2.5658,-2.5595,-2.5527,-2.5472,-2.5452,-2.5431,-2.5445,-2.5419,-2.5396,-2.539,-2.5385,-2.5393,-2.5441,-2.5441,-2.5447,-2.5447,-2.5447]}]]